Regional Weather Roundup
Issued by NWS

Home | Current Version | Previous Version | Graphics & Text | Print | Product List | Glossary On
Versions: 1 2 3 4 5 6 7 8 9 10 11 12 13 14 15 16 17 18 19 20 21 22 23 24 25 26 27 28 29 30 31 32 33 34 35 36 37 38 39 40 41 42 43 44 45 46 47 48 49 50
809
ASUS43 KDMX 152301
RWRIA

WEATHER ROUNDUP FOR IOWA
NATIONAL WEATHER SERVICE DES MOINES IA
500 PM CST MON JAN 15 2018

NOTE: "FAIR" INDICATES FEW OR NO CLOUDS BELOW 12,000 FEET WITH NO
SIGNIFICANT WEATHER AND/OR OBSTRUCTIONS TO VISIBILITY.

* - THESE STATIONS ARE NOT NWS STATIONS...THUS NOT UNDER NWS
QUALITY CONTROL.  THEY ALSO DO NOT REPORT WEATHER SUCH
AS PRECIPITATION OR FOG.

IAZ001>003-012>014-020>022-031>034-043>046-160000-
   NORTHWEST IOWA

CITY           SKY/WX    TMP DP  RH WIND       PRES   REMARKS
CARROLL *      MOCLDY     0  -9  65 NW21G28   30.54R WCI -23
CHEROKEE *     PTCLDY    -2 -10  68 NW15G21   30.57R WCI -22
DENISON *      PTCLDY    -2  -9  71 NW20G28   30.58S WCI -25
LE MARS *      PTCLDY    -2  -9  71 NW17G26   30.62R WCI -24
ORANGE CITY *  CLEAR      0  -8  71 NW13G20   30.56R WCI -18
SHELDON *      CLOUDY    -4  -9  77 NW24G31   30.53R WCI -29
SIOUX CITY     CLOUDY    -1  -9  68 NW25G32   30.62R WCI -25
SPENCER        CLOUDY    -1  -9  68 NW18G28   30.53R HAZE    WCI -22
STORM LAKE *   MOCLDY    -4 -11  71 NW21G31   30.52R WCI -28
$$

IAZ055>058-069>071-079>083-090>094-160000-
   SOUTHWEST IOWA

CITY           SKY/WX    TMP DP  RH WIND       PRES   REMARKS
ATLANTIC *     PTCLDY     0  -8  71 NW20G25   30.58R WCI -22
AUDUBON *      CLEAR      0  -8  71 NW13G21   30.55R HAZE    WCI -18
CLARINDA *     MOCLDY     3  -6  66 NW20G28     N/A  WCI -18
COUNCIL BLFS * MOCLDY     1  -6  71 NW20G26   30.59R WCI -20
CRESTON *      PTCLDY     0  -8  71 NW20      30.54R WCI -22
HARLAN  *      PTCLDY     0  -8  71 NW15      30.62R WCI -20
LAMONI         MOCLDY     2  -8  63 NW18G26   30.53R WCI -19
RED OAK *      LGT SNOW   3  -4  72 NW17G23   30.61R VSB 1   WCI -17
SHENANDOAH *   MOCLDY     3  -6  66 NW14G24   30.63R WCI -15
$$

IAZ047>049-059>061-072>074-084-160000-
   CENTRAL IOWA

CITY           SKY/WX    TMP DP  RH WIND       PRES   REMARKS
AMES           MOCLDY     0  -5  79 NW17      30.52R HAZE    WCI -21
ANKENY *       CLOUDY     0  -8  71 NW18G25   30.55R WCI -22
BOONE *        CLOUDY    -2  -8  78 NW20G30   30.49R HAZE    WCI -25
CHARITON *     MOCLDY     1  -6  71 NW18G24   30.51R WCI -19
DES MOINES     PTCLDY     2  -7  66 NW23G30   30.52R BLWGSNOWWCI -21
GRINNELL*      PTCLDY    -1  -6  78 NW23G29   30.48R HAZE    WCI -24
KNOXVILLE *    PTCLDY     1 -11  55 NW21      30.49R WCI -20
MARSHALLTOWN   CLOUDY    -1  -7  75 NW20      30.47R WCI -23
NEWTON *       MOCLDY     0  -8  71 NW16      30.50R WCI -21
PELLA *        MOCLDY     1  -6  69 NW13G26   30.51R WCI -16
PERRY *          N/A      1  -8  67 NW17      30.54R WCI -20
$$

IAZ004>006-015-016-023>025-035-036-160000-
   NORTH CENTRAL IOWA

CITY           SKY/WX    TMP DP  RH WIND       PRES   REMARKS
ALGONA *       CLOUDY    -4 N/A N/A NW18G28   30.49R HAZE    WCI -26
CLARION *      CLOUDY    -4  -9  77 NW28G35   30.48R HAZE    WCI -30
ESTHERVILLE    MOCLDY    -7 -11  83 NW21G32   30.51R FOG     WCI -32
FORT DODGE *   CLOUDY    -3  -9  75 NW13      30.51R HAZE    WCI -22
MASON CITY     CLOUDY    -3  -9  75 NW22      30.45R HAZE    WCI -27
FOREST CITY *  MOCLDY     0  -8  71 NW17G26   30.45R HAZE    WCI -21
WEBSTER CITY * MOCLDY    -2 -11  65 NW23G32   30.49R WCI -26
IOWA FALLS *   MOCLDY    -1  -7  74 NW25      30.47R HAZE    WCI -25
$$

IAZ007>011-017>019-026>030-037>042-050>054-066-160000-
   NORTHEAST IOWA

CITY           SKY/WX    TMP DP  RH WIND       PRES   REMARKS
CEDAR RAPIDS   MOCLDY     3  -5  69 NW18G28   30.41R WCI -17
CHARLES CITY * CLOUDY     1  -6  71 NW17G25   30.41R WCI -19
CLINTON *      LGT SNOW   6   2  83 W26G32    30.35R VSB 1   WCI -16
DECORAH *      MOCLDY     5   0  78 NW14      30.34R HAZE    WCI -12
DUBUQUE        LGT SNOW   7   1  76 NW14      30.30R WCI -10
MONTICELLO *   MOCLDY     5  -2  72 W17G26    30.37R HAZE    WCI -14
OELWEIN *      MOCLDY     1  -2  85 NW16G24   30.38R WCI -18
WATERLOO       CLOUDY     1  -6  72 NW16G25   30.43R HAZE    WCI -19
$$

IAZ064-065-067-068-078-160000-
   EAST CENTRAL IOWA

CITY           SKY/WX    TMP DP  RH WIND       PRES   REMARKS
DAVENPORT      CLOUDY    15  -2  46 W21G29    30.39R WCI  -2
IOWA CITY      CLOUDY     5  -6  60 NW18G31   30.45R WCI -15
MT. PLEASANT * PTCLDY     3  -6  66 NW16G24   30.46R WCI -16
MUSCATINE *    MOCLDY     5  -4  66 W18       30.46R WCI -15
QUAD CITIES    CLOUDY     7   0  73 W18G30    30.38R WCI -12
$$

IAZ062-063-075>077-085>089-095>099-160000-
   SOUTHEAST IOWA

CITY           SKY/WX    TMP DP  RH WIND       PRES   REMARKS
BURLINGTON     MOCLDY     4  -6  63 NW14G26   30.44R WCI -14
FAIRFIELD *    MOCLDY     3  -6  66 NW20      30.47R HAZE    WCI -18
FORT MADISON * CLOUDY     3  -6  66 NW21G26   30.46R WCI -18
KEOKUK *       CLOUDY     7  -4  61 NW15      30.47R WCI -11
OSKALOOSA *      N/A      1  -6  71 NW24G32   30.49R WCI -22
OTTUMWA        CLOUDY     2  -6  69 NW18      30.49R WCI -19
WASHINGTON *   PTCLDY     1  -4  78 W23G29    30.47R WCI -21
$$

ABBREVIATIONS USED IN REMARKS
   TC - TEMPERATURES IN CELSIUS
  WCI - WIND CHILL INDEX
   HX - HEAT INDEX
  VSB - VISIBILITY
$$





USA.gov is the U.S. government's official web portal to all federal, state and local government web resources and services.